Content
SEND FEEDBACK

Daily
Averages
Monthly
Summary
United States of America

LAUGHLIN, NEVADA


Home > North America > United States > Nevada
Elevation: 1018 feet     Latitude: 35 10N     Longitude: 114 37W

WEATHER
 
SELECT A DAY
Number of Records: 191,411;   Date Range: 7/1/96 - 11/26/14
 
SHARE

PRINT THIS DATA

[ ← Previous Day ]
WEATHER ALMANAC - AUGUST 18, 2014
[ Next Day → ]
[ °C ]   °F
Weather ElementAverageHighLow
Temperature94.1 °F100.4 °F (12:15 pm)86 °F (12:15 am)
Dewpoint59.2 °F62.6 °F (2:55 pm)53.6 °F (9:15 pm)
Humidity31.6 %45 % (3:55 am)24 % (5:55 am)
Barometer29.79 in29.90 in (5:15 am)29.72 in (5:35 pm)
Wind Speed10.5 mph21.9 mph (8:15 pm)
Wind Gust27.6 mph (8:35 pm)
Weather ElementAverage
Visibility10 mi
Wind DirectionSSE (159.6 °)

Weather ElementTotal
Precipitation---
Cooling Degree Days28.2 (Base 65)
Growing Degree Days43.2 (Base 50)
Averaged from 70 records on August 18, 2014
WEATHER CONDITIONS BREAKOUT
WIND DIRECTION BREAKOUT
WEATHER BY HOUR - AUGUST 18, 2014
[ °C ]   °F
Local TimeTemperatureDewpointHumidityBarometerVisibilityWind DirectionWind SpeedGust SpeedPrecipitationEventsConditions
12:15 AM93.2 °F53.6 °F26 %29.75 in10.0 miCalmClear
12:35 AM93.2 °F53.6 °F26 %29.74 in10.0 miCalmClear
12:55 AM95.0 °F53.6 °F25 %29.74 in10.0 miCalmClear
1:15 AM93.2 °F55.4 °F28 %29.74 in10.0 miCalmClear
1:35 AM93.2 °F55.4 °F28 %29.74 in10.0 miCalmClear
1:55 AM91.4 °F57.2 °F31 %29.75 in10.0 miSouth (180°)8.1 mphClear
2:15 AM95.0 °F57.2 °F28 %29.75 in10.0 miSouth (180°)11.5 mph21.9 mphClear
2:35 AM95.0 °F59.0 °F30 %29.76 in10.0 miSSE (160°)17.3 mph24.2 mphClear
2:55 AM95.0 °F59.0 °F30 %29.77 in10.0 miSouth (190°)15.0 mph25.3 mphClear
3:15 AM95.0 °F59.0 °F30 %29.78 in10.0 miSouth (190°)13.8 mphClear
3:35 AM93.2 °F59.0 °F32 %29.78 in10.0 miSouth (180°)15.0 mph21.9 mphClear
3:55 AM93.2 °F60.8 °F34 %29.79 in10.0 miSouth (180°)11.5 mph18.4 mphClear
4:15 AM93.2 °F60.8 °F34 %29.80 in10.0 miSouth (180°)10.4 mphClear
4:35 AM93.2 °F60.8 °F34 %29.80 in10.0 miSouth (190°)8.1 mphClear
4:55 AM89.6 °F62.6 °F40 %29.80 in10.0 miSW (230°)3.5 mphClear
5:15 AM89.6 °F62.6 °F40 %29.81 in10.0 miSW (220°)3.5 mphClear
5:35 AM87.8 °F62.6 °F43 %29.81 in10.0 miCalmClear
5:55 AM86.0 °F62.6 °F45 %29.83 in10.0 miSSW (210°)6.9 mphClear
6:15 AM86.0 °F62.6 °F45 %29.84 in10.0 miSSW (200°)4.6 mphClear
6:35 AM89.6 °F62.6 °F40 %29.84 in10.0 miSouth (190°)15.0 mphClear
6:55 AM91.4 °F62.6 °F38 %29.85 in10.0 miSSW (200°)10.4 mphClear
7:15 AM89.6 °F62.6 °F40 %29.87 in10.0 miSSW (210°)8.1 mphClear
7:35 AM89.6 °F62.6 °F40 %29.87 in10.0 miSouth (190°)11.5 mphClear
7:55 AM91.4 °F60.8 °F36 %29.88 in10.0 miSouth (190°)13.8 mph18.4 mphClear
8:15 AM91.4 °F60.8 °F36 %29.88 in10.0 miSouth (190°)12.7 mphClear
8:35 AM93.2 °F60.8 °F34 %29.88 in10.0 miSouth (170°)15.0 mphClear
8:55 AM91.4 °F59.0 °F34 %29.88 in10.0 miSouth (170°)19.6 mph23.0 mphClear
9:15 AM93.2 °F60.8 °F34 %29.89 in10.0 miSouth (170°)19.6 mph25.3 mphClear
9:35 AM93.2 °F60.8 °F34 %29.89 in10.0 miSouth (180°)17.3 mph23.0 mphClear
9:55 AM91.4 °F59.0 °F34 %29.89 in10.0 miSSE (160°)17.3 mphThunderstormClear
10:15 AM91.4 °F57.2 °F31 %29.90 in10.0 miSouth (190°)16.1 mph20.7 mphClear
10:35 AM91.4 °F57.2 °F31 %29.89 in10.0 miSSW (200°)12.7 mph17.3 mphThunderstormClear
10:55 AM89.6 °F57.2 °F33 %29.88 in10.0 miSE (130°)4.6 mphThunderstormClear
11:15 AM87.8 °F59.0 °F38 %29.87 in10.0 miCalmScattered Clouds
11:35 AM89.6 °F60.8 °F38 %29.86 in10.0 miSSW (210°)3.5 mphClear
11:55 AM89.6 °F60.8 °F38 %29.86 in10.0 miSouth (180°)9.2 mphClear
12:15 PM91.4 °F62.6 °F38 %29.86 in10.0 miSSW (200°)15.0 mphThunderstormPartly Cloudy
12:35 PM93.2 °F62.6 °F36 %29.86 in10.0 miSouth (180°)12.7 mphClear
12:55 PM95.0 °F59.0 °F30 %29.84 in10.0 miSW (230°)11.5 mph17.3 mphClear
1:15 PM93.2 °F57.2 °F30 %29.83 in10.0 miSSW (200°)8.1 mphPartly Cloudy
1:35 PM95.0 °F59.0 °F30 %29.82 in10.0 miSW (220°)6.9 mphClear
1:55 PM95.0 °F59.0 °F30 %29.81 in10.0 miSouth (180°)4.6 mphClear
2:15 PM98.6 °F57.2 °F25 %29.80 in10.0 miCalmPartly Cloudy
2:35 PM98.6 °F59.0 °F27 %29.78 in10.0 miWSW (250°)8.1 mphClear
2:55 PM98.6 °F55.4 °F24 %29.77 in10.0 miCalmClear
3:15 PM98.6 °F55.4 °F24 %29.76 in10.0 miSSE (160°)13.8 mphClear
3:35 PM98.6 °F57.2 °F25 %29.76 in10.0 miSSE (160°)8.1 mphClear
3:55 PM100.4 °F57.2 °F24 %29.75 in10.0 miSSW (210°)11.5 mphClear
4:15 PM100.4 °F59.0 °F25 %29.74 in10.0 miSouth (170°)6.9 mphClear
4:35 PM100.4 °F57.2 °F24 %29.73 in10.0 miSouth (180°)12.7 mphClear
4:55 PM100.4 °F57.2 °F24 %29.73 in10.0 miSSW (200°)6.9 mphClear
5:15 PM100.4 °F57.2 °F24 %29.72 in10.0 miSouth (180°)6.9 mph18.4 mphClear
5:35 PM98.6 °F59.0 °F27 %29.72 in10.0 miSouth (170°)9.2 mph16.1 mphClear
5:55 PM98.6 °F59.0 °F27 %29.72 in10.0 miSSW (200°)9.2 mph19.6 mphClear
6:15 PM98.6 °F59.0 °F27 %29.72 in10.0 miSouth (180°)8.1 mphClear
6:35 PM98.6 °F59.0 °F27 %29.72 in10.0 miSouth (170°)18.4 mphClear
6:55 PM98.6 °F59.0 °F27 %29.72 in10.0 miSouth (180°)15.0 mphClear
7:15 PM98.6 °F59.0 °F27 %29.72 in10.0 miSouth (170°)16.1 mphClear
7:35 PM98.6 °F59.0 °F27 %29.72 in10.0 miSSE (160°)12.7 mphClear
7:55 PM98.6 °F59.0 °F27 %29.72 in10.0 miSSE (160°)12.7 mphClear
8:15 PM96.8 °F59.0 °F28 %29.72 in10.0 miSouth (180°)21.9 mphClear
8:35 PM95.0 °F59.0 °F30 %29.73 in10.0 miSouth (170°)20.7 mph27.6 mphClear
9:15 PM95.0 °F59.0 °F30 %29.75 in10.0 miSouth (170°)15.0 mphClear
9:55 PM95.0 °F59.0 °F30 %29.76 in10.0 miSSE (160°)15.0 mphClear
10:15 PM95.0 °F59.0 °F30 %29.76 in10.0 miSSE (160°)15.0 mphClear
10:35 PM93.2 °F59.0 °F32 %29.76 in10.0 miSSE (150°)16.1 mph19.6 mphClear
10:55 PM93.2 °F59.0 °F32 %29.76 in10.0 miSSE (160°)17.3 mphClear
11:15 PM93.2 °F60.8 °F34 %29.76 in10.0 miSSE (160°)15.0 mphClear
11:35 PM93.2 °F60.8 °F34 %29.76 in10.0 miSSE (160°)15.0 mphClear
11:55 PM93.2 °F62.6 °F36 %29.76 in10.0 miSouth (170°)15.0 mphClear
Hourly data recorded from KIFP, located miles away from Laughlin, Nevada







STORIES FROM OUR PARTNERS